[[{"header":{"parameterUnit":"m.s-1","parameterCategory":1,"la1":30.2991,"la2":30.254,"lo1":-89.0895,"lo2":-89.0444,"dy":0.0017,"dx":0.0017,"nx":28,"ny":28,"refTime":"2023-09-18T03:00:00:Z","depth":0,"parameterNumber":2,"parameterNumberName":"U-component_of_WINDS"},"data":[0,0,0,0,0,0,0,0,0,0,0,0,0,0,0,0,0,0,0,0,0,0,0,0,0,0,0,0,0,0,0,0,0,0,0,0,0,0,0,0,0,0,0,0,0,0,0,0,0,0,0,0,0,0,0,0,0,0,-1.7061,-1.7061,0,-1.7154,-1.7155,-1.7156,-1.7169,-1.7168,-1.7167,-1.7166,-1.7268,-1.7271,-1.7274,0,0,0,0,0,0,0,0,0,0,0,0,0,-1.6898,-1.6901,-1.706,-1.7062,-1.7063,-1.7154,-1.7155,-1.7156,-1.7169,-1.7168,-1.7167,-1.7166,-1.7266,-1.727,-1.7275,0,0,0,0,0,0,0,0,0,0,0,0,0,-1.6978,-1.6902,-1.706,-1.708,-1.7083,-1.7153,-1.7155,-1.7157,-1.7169,-1.7168,-1.7167,-1.7165,-1.7265,-1.727,-1.7275,-1.7334,0,0,-1.7291,-1.7294,0,0,0,0,0,0,0,0,-1.6973,-1.6984,-1.7076,-1.7079,-1.7082,-1.7148,-1.7135,-1.7216,-1.717,-1.7137,-1.7166,-1.7165,-1.7229,-1.7237,-1.7258,-1.7339,-1.7344,-1.7292,-1.7295,-1.7297,-1.7299,0,0,0,0,0,0,0,-1.6968,-1.698,-1.7098,-1.7077,-1.7081,-1.7086,-1.7096,-1.715,-1.719,-1.7139,-1.7141,-1.7151,-1.7231,-1.7253,-1.726,-1.7345,-1.7292,-1.7296,-1.73,-1.7302,-1.748,-1.7481,0,0,0,0,0,0,-1.6958,-1.6975,-1.7095,-1.71,-1.7023,-1.709,-1.7101,-1.7128,-1.7189,-1.7197,-1.7152,-1.7151,-1.7245,-1.7254,-1.7264,-1.7337,-1.7297,-1.7302,-1.7305,-1.7478,-1.748,-1.7482,0,0,0,0,0,0,-1.6954,-1.6968,-1.7091,-1.7038,-1.7054,-1.7094,-1.7125,-1.7131,-1.7153,-1.7198,-1.7206,-1.7167,-1.7244,-1.7257,-1.7316,-1.7341,-1.7305,-1.7309,-1.7476,-1.7479,-1.7481,-1.7484,0,0,0,0,0,0,-1.695,-1.6967,-1.6989,-1.7038,-1.7057,-1.714,-1.7126,-1.7134,-1.7161,-1.7161,-1.7215,-1.7222,-1.7244,-1.7309,-1.7322,-1.7347,-1.7314,-1.7474,-1.7477,-1.748,-1.7481,-1.7486,-1.7489,0,0,0,0,0,-1.6944,-1.6987,-1.699,-1.7004,-1.7084,-1.7141,-1.7152,-1.7174,-1.7163,-1.7186,-1.7215,-1.7221,-1.7336,-1.7315,-1.733,-1.7357,-1.7473,-1.7477,-1.748,-1.748,-1.7485,-1.7489,0,0,0,0,0,0,-1.6941,-1.6994,-1.6998,-1.7058,-1.7095,-1.7143,-1.7173,-1.7179,-1.7222,-1.722,-1.7248,-1.726,-1.7318,-1.7344,-1.7319,-1.7418,-1.7404,-1.741,-1.7398,-1.7404,-1.7407,-1.74,-1.7318,0,0,0,0,0,-1.6947,-1.6987,-1.7032,-1.7081,-1.7099,-1.7133,-1.7158,-1.7172,-1.7212,-1.7229,-1.7262,-1.7303,-1.7348,-1.7377,-1.7422,-1.7485,-1.7498,-1.7512,-1.7516,-1.7519,-1.7524,-1.756,-1.7567,-1.7493,-1.7493,-1.7493,0,0,-1.6961,-1.6995,-1.7019,-1.7081,-1.7111,-1.7154,-1.7146,-1.7191,-1.7223,-1.7236,-1.7294,-1.732,-1.7367,-1.7429,-1.7458,-1.7452,-1.7547,-1.7523,-1.7525,-1.7529,-1.7564,-1.7571,-1.7577,-1.7496,-1.7495,-1.7495,0,0,-1.7007,-1.7036,-1.708,-1.711,-1.7155,-1.7177,-1.7188,-1.7236,-1.7253,-1.7311,-1.7321,-1.7361,-1.7439,-1.7471,-1.7498,-1.7557,-1.7563,-1.7571,-1.7591,-1.7625,-1.7631,-1.7637,-1.7657,-1.7664,-1.7576,-1.7576,-1.7576,0,-1.7018,-1.7081,-1.7102,-1.7146,-1.7174,-1.7186,-1.7231,-1.726,-1.7318,-1.7338,-1.733,-1.7427,-1.746,-1.7529,-1.7543,-1.7565,-1.7579,-1.7564,-1.7628,-1.7634,-1.7639,-1.7659,-1.7667,-1.7577,-1.7577,-1.7576,-1.7576,0,-1.7093,-1.7136,-1.7166,-1.722,-1.7251,-1.7296,-1.7325,-1.7354,-1.7366,-1.7389,-1.7448,-1.7488,-1.754,-1.7558,-1.757,-1.7629,-1.7624,-1.7622,-1.7609,-1.7646,-1.7666,-1.7674,-1.7577,-1.7577,-1.7577,-1.7577,0,0,-1.714,-1.7204,-1.7214,-1.7239,-1.729,-1.7324,-1.737,-1.7419,-1.7444,-1.7484,-1.7524,-1.7589,-1.7587,-1.7617,-1.7634,-1.7664,-1.7708,-1.7659,-1.766,-1.7666,-1.7775,-1.7776,-1.7785,-1.7712,-1.7714,-1.7715,-1.7771,0,-1.7191,-1.7271,-1.7291,-1.736,-1.74,-1.7412,-1.7452,-1.7489,-1.7512,-1.7551,-1.7578,-1.7623,-1.7617,-1.7635,-1.7666,-1.7696,-1.773,-1.7692,-1.7751,-1.7752,-1.7738,-1.7795,-1.7796,-1.7847,-1.7779,-1.778,-1.7781,0,-1.7262,-1.7301,-1.7373,-1.7418,-1.7436,-1.7471,-1.7518,-1.7555,-1.7597,-1.7612,-1.7645,-1.7659,-1.7708,-1.7692,-1.7762,-1.7735,-1.7761,-1.7779,-1.7782,-1.7788,-1.7769,-1.7802,-1.7864,-1.7872,-1.7794,-1.7793,-1.7792,0,-1.7288,-1.736,-1.7412,-1.7432,-1.7486,-1.7511,-1.7535,-1.7575,-1.7604,-1.7645,-1.7664,-1.7712,-1.7738,-1.7775,-1.7801,-1.7787,-1.7869,-1.7855,-1.7883,-1.7883,-1.79,-1.7898,-1.7966,-1.7917,-1.7916,-1.7916,-1.7916,0,-1.7344,-1.7387,-1.7424,-1.7456,-1.7505,-1.7529,-1.7578,-1.7603,-1.7639,-1.7677,-1.7691,-1.7727,-1.776,-1.7801,-1.7822,-1.7876,-1.7888,-1.7902,-1.7907,-1.7901,-1.7899,-1.7918,-1.7915,-1.7918,-1.7918,-1.7917,-1.7917,0,-1.7381,-1.7408,-1.7465,-1.7511,-1.7524,-1.7558,-1.7598,-1.7631,-1.7654,-1.7702,-1.7715,-1.7753,-1.7801,-1.7831,-1.7894,-1.7908,-1.7968,-1.7972,-1.7953,-1.7955,-1.7981,-1.7978,-1.8063,-1.8076,-1.8018,-1.8019,-1.8019,0,-1.7415,-1.7448,-1.7497,-1.7523,-1.7546,-1.7588,-1.7616,-1.7641,-1.7671,-1.7721,-1.7747,-1.7796,-1.7837,-1.7915,-1.7948,-1.7996,-1.8002,-1.8028,-1.8009,-1.8001,-1.8002,-1.7999,-1.8003,-1.8031,-1.8032,-1.8032,-1.8032,0,-1.7471,-1.7482,-1.7521,-1.7565,-1.7598,-1.7635,-1.7671,-1.7692,-1.7723,-1.7756,-1.7805,-1.7836,-1.7899,-1.7948,-1.7998,-1.8025,-1.8035,-1.8038,-1.8047,-1.8041,-1.8028,-1.8035,-1.7961,-1.8036,-1.8036,-1.8035,-1.8035,-1.8035,-1.7507,-1.7537,-1.7576,-1.762,-1.7649,-1.7683,-1.7715,-1.7742,-1.7782,-1.7834,-1.7847,-1.7898,-1.794,-1.8009,-1.8037,-1.8078,-1.8075,-1.8088,-1.8091,-1.8094,-1.8094,-1.8021,-1.8088,-1.8088,-1.8088,-1.8088,-1.8088,0,-1.7564,-1.7589,-1.7629,-1.7678,-1.7713,-1.7717,-1.7757,-1.7786,-1.783,-1.7868,-1.7907,-1.7963,-1.8011,-1.8048,-1.8097,-1.8123,-1.8129,-1.8135,-1.8134,-1.814,-1.8095,-1.8082,-1.813,-1.813,-1.813,-1.813,-1.813,-1.813,-1.7597,-1.7648,-1.7664,-1.773,-1.7756,-1.7804,-1.7827,-1.7859,-1.7889,-1.795,-1.7989,-1.8012,-1.805,-1.8102,-1.8146,-1.8156,-1.8173,-1.8179,-1.819,-1.8147,-1.8143,-1.8138,-1.8126,-1.8183,-1.8183,-1.8231,-1.8231,-1.8232]},{"header":{"parameterUnit":"m.s-1","parameterCategory":1,"la1":30.2991,"la2":30.254,"lo1":-89.0895,"lo2":-89.0444,"dy":0.0017,"dx":0.0017,"nx":28,"ny":28,"refTime":"2023-09-18T03:00:00:Z","depth":0,"parameterNumber":3,"parameterNumberName":"V-component_of_WINDS"},"data":[0,0,0,0,0,0,0,0,0,0,0,0,0,0,0,0,0,0,0,0,0,0,0,0,0,0,0,0,0,0,0,0,0,0,0,0,0,0,0,0,0,0,0,0,0,0,0,0,0,0,0,0,0,0,0,0,0,0,1.8976,1.8974,0,1.8708,1.8704,1.8701,1.8534,1.8533,1.8532,1.8531,1.8239,1.8233,1.8226,0,0,0,0,0,0,0,0,0,0,0,0,0,1.9331,1.9325,1.8977,1.8973,1.897,1.8708,1.8704,1.8701,1.8534,1.8533,1.8532,1.8531,1.8242,1.8233,1.8225,0,0,0,0,0,0,0,0,0,0,0,0,0,1.9131,1.9323,1.8977,1.8856,1.8842,1.8709,1.8704,1.87,1.8534,1.8533,1.8532,1.8531,1.8244,1.8234,1.8224,1.8185,0,0,1.8192,1.8187,0,0,0,0,0,0,0,0,1.9142,1.9118,1.8877,1.8864,1.8849,1.8653,1.8722,1.8526,1.8535,1.8651,1.8531,1.853,1.8377,1.8356,1.8307,1.8171,1.8159,1.8191,1.8185,1.818,1.8177,0,0,0,0,0,0,0,1.9156,1.9128,1.887,1.8874,1.8856,1.8809,1.878,1.8684,1.8524,1.864,1.8628,1.8599,1.8369,1.8318,1.8299,1.8155,1.8191,1.8182,1.8176,1.8171,1.7971,1.7972,0,0,0,0,0,0,1.9192,1.9141,1.8878,1.8862,1.8996,1.8804,1.8771,1.8717,1.8525,1.8494,1.8601,1.8592,1.8336,1.8312,1.8288,1.8229,1.818,1.817,1.8164,1.797,1.7971,1.7972,0,0,0,0,0,0,1.92,1.917,1.8889,1.8998,1.8959,1.88,1.874,1.8712,1.8661,1.8495,1.8463,1.8579,1.8334,1.8303,1.8213,1.8217,1.8166,1.8156,1.7969,1.797,1.7971,1.8112,0,0,0,0,0,0,1.9211,1.9174,1.9161,1.8999,1.8954,1.8823,1.8741,1.8708,1.8646,1.8633,1.8466,1.8437,1.8331,1.8229,1.8203,1.8201,1.8148,1.7968,1.7969,1.7971,1.8106,1.8118,1.8128,0,0,0,0,0,1.9224,1.9208,1.9162,1.9131,1.8935,1.8824,1.8797,1.868,1.8647,1.863,1.8523,1.8442,1.8222,1.8222,1.819,1.8186,1.7967,1.7969,1.7971,1.8101,1.8116,1.8128,0,0,0,0,0,0,1.9369,1.9185,1.9131,1.9063,1.8962,1.8796,1.8772,1.87,1.8601,1.8592,1.8445,1.8409,1.8333,1.8249,1.8253,1.8137,1.8084,1.808,1.8194,1.8207,1.8218,1.8238,1.8139,0,0,0,0,0,1.9395,1.9325,1.9165,1.912,1.9073,1.8932,1.8879,1.8798,1.8684,1.8638,1.8524,1.8412,1.8317,1.8257,1.8161,1.8094,1.8053,1.8075,1.8086,1.8096,1.8093,1.805,1.8057,1.7979,1.7979,1.7979,0,0,1.9443,1.9334,1.9298,1.9147,1.9058,1.8984,1.8896,1.8821,1.8764,1.8625,1.8534,1.8447,1.8311,1.8233,1.8193,1.8161,1.8106,1.8099,1.8108,1.8099,1.8053,1.806,1.8067,1.798,1.798,1.798,0,0,1.9495,1.9407,1.936,1.9275,1.9144,1.905,1.904,1.8885,1.8824,1.8732,1.8626,1.8552,1.8392,1.83,1.8233,1.8252,1.8172,1.8223,1.828,1.8239,1.8245,1.825,1.8254,1.8258,1.8222,1.8222,1.8222,0,1.9571,1.9461,1.9343,1.9276,1.9211,1.9089,1.9037,1.8957,1.88,1.8755,1.8725,1.8522,1.8422,1.832,1.8325,1.8275,1.8254,1.8241,1.8255,1.8258,1.8261,1.8263,1.8266,1.8229,1.8228,1.8228,1.8227,0,1.956,1.9485,1.9462,1.9319,1.9251,1.9192,1.9061,1.9006,1.8931,1.884,1.8746,1.8623,1.8499,1.8468,1.8392,1.8354,1.8339,1.8284,1.8227,1.8277,1.8277,1.8277,1.8239,1.8237,1.8235,1.8233,0,0,1.9694,1.9489,1.9482,1.9416,1.9263,1.92,1.9134,1.9018,1.8973,1.8868,1.8806,1.8674,1.8623,1.8546,1.8458,1.8423,1.8443,1.837,1.8365,1.8387,1.8391,1.8433,1.8437,1.8391,1.8391,1.8391,1.8402,0,1.9722,1.9603,1.9495,1.9413,1.934,1.9223,1.9164,1.9062,1.8975,1.8896,1.8797,1.8706,1.8645,1.8598,1.8559,1.845,1.8442,1.8448,1.8327,1.8324,1.8364,1.8437,1.848,1.8497,1.8401,1.8401,1.8401,0,1.9738,1.9645,1.9558,1.9412,1.9377,1.9328,1.9213,1.9141,1.9021,1.8959,1.8876,1.8785,1.8704,1.8659,1.8543,1.855,1.8493,1.8433,1.843,1.8412,1.8365,1.8419,1.85,1.8502,1.84,1.84,1.84,0,1.9843,1.9694,1.9623,1.9569,1.9399,1.9366,1.9292,1.9172,1.9109,1.9007,1.8964,1.8852,1.879,1.8702,1.8582,1.856,1.8478,1.8422,1.8421,1.8424,1.8407,1.8409,1.8478,1.8375,1.8375,1.8375,1.8375,0,1.9884,1.9835,1.9668,1.9624,1.9564,1.9438,1.938,1.9295,1.9189,1.9122,1.9012,1.8951,1.8796,1.8715,1.8619,1.8537,1.851,1.8454,1.8429,1.8463,1.847,1.8423,1.8418,1.8375,1.8375,1.8375,1.8375,0,1.999,1.9877,1.9791,1.9639,1.9599,1.9561,1.9427,1.9377,1.9285,1.9202,1.9175,1.9028,1.8926,1.8799,1.8654,1.859,1.8517,1.848,1.856,1.8545,1.855,1.8551,1.8589,1.8587,1.8489,1.849,1.8491,0,2.0024,1.9984,1.9828,1.9779,1.971,1.9631,1.9568,1.9442,1.938,1.9241,1.9207,1.9099,1.9005,1.8848,1.8724,1.8613,1.8571,1.8592,1.8553,1.8588,1.8568,1.8572,1.8566,1.8601,1.8603,1.8604,1.8606,0,2.0094,2.0041,1.9957,1.9855,1.9784,1.9696,1.9601,1.9565,1.9419,1.9354,1.9253,1.9181,1.9037,1.8929,1.8802,1.8719,1.8637,1.862,1.8613,1.8646,1.8694,1.8667,1.8586,1.8618,1.8617,1.8616,1.8616,1.8615,2.0162,2.0122,2.0007,1.9917,1.9835,1.975,1.9696,1.9599,1.9514,1.9391,1.932,1.9221,1.9098,1.8921,1.8842,1.8758,1.8727,1.8718,1.8715,1.8714,1.8725,1.8711,1.8734,1.8734,1.8733,1.8733,1.8732,0,2.0226,2.0147,2.0067,1.9942,1.987,1.9806,1.9698,1.9641,1.9557,1.9453,1.9365,1.9247,1.9142,1.9012,1.8897,1.8855,1.8814,1.8829,1.8829,1.8811,1.876,1.8776,1.8864,1.8864,1.8864,1.8864,1.8864,1.8864,2.0251,2.0178,2.0111,1.9995,1.9914,1.982,1.9764,1.9684,1.96,1.9476,1.9391,1.9309,1.9193,1.9069,1.8969,1.8932,1.8894,1.892,1.8873,1.8826,1.8815,1.8804,1.8819,1.8914,1.8914,1.893,1.8931,1.8931]}]]